Location: *
(38.9800°N, 16.0500°E)
Time: 18:54:47
(UTC+00:00)

COSMOS 2441 - Pass Details

Date: 07 April 2020
Orbit: 709 x 730 km, 98.0° (Epoch: 06 June)

Event Time Altitude Azimuth Distance (km) Brightness Sun altitude
Rises 02:46:35 0° 12° (NNE) 3,113 8.2 -20.0°
Reaches altitude 10° 02:48:51 10° 12° (NNE) 2,191 7.4 -19.6°
Maximum altitude 02:53:40 87° 284° (WNW) 717 4.2 -18.8°
Enters shadow 02:56:56 21° 196° (SSW) 1,580 5.8 -18.2°
